Вернуться в каталог

STARLINK-2557

АктивенСвязьVLEO
NORAD 48299·PAYLOAD·🇺🇸 United States

Запущен Apr 29, 2021 с Cape Canaveral Space Force Station

Loading…

Ближайшие Пролёты (ближайшие 24 часа)

TLE

СвежийSource: CelesTrak SupGP

Эпоха: Sep 14, 2026, 20:36 UTC

1 48299C 21036Z   26257.85881944  .00032991  00000+0  10608-2 0  2570
2 48299  53.1573 274.9956 0001309  87.7530  90.7793 15.31687510    16

Отслеживайте STARLINK-2557 в реальном времени с AllMySat

Download on the App Store